Location: Home
(42.5358°N, 72.7383°W)
Time: 23:12:36
(UTC-05:00)

XW-2F - Visible Passes

Search period start: 24 January 2022 00:00
Search period end: 03 February 2022 00:00
Orbit: 494 x 515 km, 97.5° (Epoch: 24 January)

Date Brightness Start Highest point End Pass type
(mag) Time Alt. Az. Time Alt. Az. Time Alt. Az.
24 Jan ? 05:41:19 10° NNE 05:44:44 37° E 05:48:08 10° SSE visible
24 Jan ? 17:54:25 10° SSW 17:57:38 28° W 18:00:51 10° NW visible
25 Jan ? 05:23:33 10° NE 05:26:28 22° E 05:29:24 10° SSE visible
25 Jan ? 17:35:50 10° S 17:39:24 47° W 17:42:58 10° NNW visible
26 Jan ? 05:06:13 10° ENE 05:08:10 14° E 05:10:07 10° SE visible
26 Jan ? 06:38:46 10° N 06:42:10 37° WNW 06:45:33 10° SW visible
27 Jan ? 06:20:24 10° N 06:24:02 65° WNW 06:27:39 10° SSW visible
28 Jan ? 06:02:12 10° NNE 06:05:51 72° ESE 06:09:30 10° S visible
28 Jan ? 18:16:31 10° SW 18:18:50 16° W 18:21:09 10° NW visible
29 Jan ? 05:44:08 10° NNE 05:47:37 40° E 05:51:05 10° S visible
29 Jan ? 17:57:24 10° SSW 18:00:30 26° W 18:03:38 10° NW visible
30 Jan ? 05:26:18 10° NE 05:29:20 24° E 05:32:21 10° SSE visible
30 Jan ? 17:38:42 10° S 17:42:13 43° W 17:45:44 10° NNW visible
31 Jan ? 05:08:49 10° NE 05:10:58 15° E 05:13:08 10° SE visible
01 Feb ? 06:23:09 10° N 06:26:47 60° WNW 06:30:23 10° SSW visible
02 Feb ? 06:04:53 10° NNE 06:08:34 78° ESE 06:12:14 10° S visible
02 Feb ? 18:19:25 10° SW 18:21:32 15° W 18:23:41 10° WNW visible
